Satellite-Ground Cal/Val Region Overpasses Predictions

Prediction of Satellite NPP Overpassing Cal/Val Region: PacNW

Region Location: (Latitude: 10.00, Longitude: 139.50) to (Latitude: 22.70, Longitude: 165.60).

Table of predicted overpasses for the next 14.0 days since TLE Epoch: 8/3/2022
Interval Starting Time Starting Location Ending Time Ending Location
1 08/03/2022 15:43:30 ( 22.70, 149.14) 08/03/2022 15:47:06 ( 10.02, 146.12)
2 08/04/2022 02:52:36 ( 10.02, 156.65) 08/04/2022 02:56:11 ( 22.64, 153.65)
3 08/04/2022 15:24:30 ( 22.66, 153.88) 08/04/2022 15:28:05 ( 10.04, 150.88)
4 08/05/2022 02:33:36 ( 10.06, 161.40) 08/05/2022 02:37:11 ( 22.68, 158.39)
5 08/05/2022 15:05:28 ( 22.68, 158.64) 08/05/2022 15:09:04 ( 10.00, 155.63)
6 08/06/2022 02:15:16 ( 12.51, 165.59) 08/06/2022 02:18:09 ( 22.66, 163.15)
7 08/06/2022 03:56:04 ( 10.04, 140.78) 08/06/2022 03:57:38 ( 15.56, 139.50)
8 08/06/2022 14:46:28 ( 22.64, 163.39) 08/06/2022 14:50:03 ( 10.02, 160.39)
9 08/07/2022 03:37:03 ( 10.02, 145.54) 08/07/2022 03:40:38 ( 22.64, 142.54)
10 08/07/2022 14:30:28 ( 11.98, 165.59) 08/07/2022 14:31:01 ( 10.04, 165.14)
11 08/07/2022 16:08:56 ( 22.66, 142.77) 08/07/2022 16:12:31 ( 10.04, 139.77)
12 08/08/2022 03:18:02 ( 10.06, 150.29) 08/08/2022 03:21:37 ( 22.68, 147.28)
13 08/08/2022 15:49:55 ( 22.68, 147.53) 08/08/2022 15:53:31 ( 10.00, 144.52)
14 08/09/2022 02:59:01 ( 10.04, 155.05) 08/09/2022 03:02:36 ( 22.66, 152.04)
15 08/09/2022 15:30:54 ( 22.70, 152.29) 08/09/2022 15:34:30 ( 10.02, 149.28)
16 08/10/2022 02:39:59 ( 10.02, 159.81) 08/10/2022 02:43:34 ( 22.64, 156.80)
17 08/10/2022 15:11:53 ( 22.66, 157.04) 08/10/2022 15:15:28 ( 10.04, 154.03)
18 08/11/2022 02:20:58 ( 10.00, 164.57) 08/11/2022 02:24:34 ( 22.68, 161.55)
19 08/11/2022 14:52:52 ( 22.68, 161.80) 08/11/2022 14:56:27 ( 10.06, 158.79)
20 08/12/2022 03:43:27 ( 10.05, 143.94) 08/12/2022 03:47:02 ( 22.67, 140.93)
21 08/12/2022 14:34:57 ( 18.77, 165.59) 08/12/2022 14:37:26 ( 10.02, 163.54)
22 08/12/2022 16:15:20 ( 22.69, 141.18) 08/12/2022 16:17:18 ( 15.77, 139.50)
23 08/13/2022 03:24:26 ( 10.03, 148.70) 08/13/2022 03:28:01 ( 22.65, 145.69)
24 08/13/2022 15:56:20 ( 22.65, 145.93) 08/13/2022 15:59:55 ( 10.03, 142.92)
25 08/14/2022 03:05:24 ( 10.01, 153.46) 08/14/2022 03:09:00 ( 22.69, 150.44)
26 08/14/2022 15:37:18 ( 22.67, 150.69) 08/14/2022 15:40:53 ( 10.05, 147.68)
27 08/15/2022 02:46:24 ( 10.05, 158.20) 08/15/2022 02:49:59 ( 22.68, 155.20)
28 08/15/2022 15:18:17 ( 22.69, 155.45) 08/15/2022 15:21:53 ( 10.01, 152.43)
29 08/16/2022 02:27:22 ( 10.04, 162.96) 08/16/2022 02:30:57 ( 22.66, 159.96)
30 08/16/2022 14:59:16 ( 22.64, 160.19) 08/16/2022 15:02:51 ( 10.02, 157.19)
